Volver al catálogo

FREGAT DEB

ActivoLEO
NORAD 45889·DEBRIS·🇷🇺 Russia

Lanzado Jul 18, 2011 desde Baikonur Cosmodrome

Loading…

Próximos Pases (próximas 24 horas)

TLE

ActualizadoSource: Space-Track

Época: Sep 14, 2026, 01:50 UTC

1 45889U 11037DJ  26257.07699603  .00262082  00000-0  10856-1 0  9999
2 45889  51.2910 287.2599 0330313 261.1852  95.1574 14.84959181276606

Sigue FREGAT DEB en tiempo real con AllMySat

Download on the App Store